Find LizzieSat-1

NORAD ID: 59132 Int'l Des: 2024-043 Owner: SIDUS Country: US operational
LEOCIRCULARRETROGRADESSO

Live Position

Loading 3D Globe...

About LizzieSat-1

Description loading...

Upcoming Passes

Passes for default location (London). Set your location on the main map for personalized predictions.

Altitude History

Loading altitude history...

Two-Line Element Set

1 59132U 24043AL 26105.92050098 .00001902 00000-0 74498-4 0 9998
2 59132 97.5533 240.9222 0012351 103.5909 256.6706 15.27022234117430
Epoch: Apr 15, 2026 • Age: 19 hours

Current Status

Altitude 489.9 km
Velocity 7.63 km/s
Sub-Earth Point 82.26°N, 32.34°E
Launch Date Mar 4, 2024
Age 2.1 years
Type other

Technical Details

Classification Payload
Mass 100.00 kg
Dry Mass 100.00 kg
Total Mass 100.00 kg
Length 0.40 m
Diameter 0.80 m
Span 1.40 m
Shape Oct cyl+8 pan
Manufacturer SIDUS
Bus Type LizzieSat
Phase Status In Orbit
Owner/State SIDUS/US

Most Searched